Regional Weather Roundup
Issued by NWS

Home | Current Version | Previous Version | Graphics & Text | Print | Product List | Glossary On
Versions: 1 2 3 4 5 6 7 8 9 10 11 12 13 14 15 16 17 18 19 20 21 22 23 24 25 26 27
000
ASUS45 KBOU 231507
RWRCO

WEATHER ROUNDUP FOR COLORADO
NATIONAL WEATHER SERVICE DENVER/BOULDER CO
800 AM MST THU FEB 23 2017

NOTE: "FAIR" INDICATES FEW OR NO CLOUDS BELOW 12000 FEET WITH NO
SIGNIFICANT WEATHER AND/OR OBSTRUCTIONS TO VISIBILITY.

COZ001>005-013-030-031-231600-
...NORTHWEST COLORADO...

CITY           SKY/WX    TMP DP  RH WIND       PRES   REMARKS
CRAIG          SNOW      25  21  85 W22       29.52R VSB 1/4 WCI  10
HAYDEN         CLOUDY    25  19  80 W8        29.49R WCI  16
MEEKER         SNOW      24  22  91 W15       29.55R VSB 1/2 WCI  11
MOUNT WERNER   NOT AVBL
STEAMBOAT SPGS PTSUNNY   27  23  86 CALM      29.46S
WALDEN         NOT AVBL
$$

COZ006>008-011-231600-
...WEST CENTRAL VALLEYS...

CITY           SKY/WX    TMP DP  RH WIND       PRES   REMARKS
GRAND JUNCTION CLOUDY    34  19  54 W8        29.63R WCI  27
MONTROSE       FAIR      31  18  58 VRB7G18   29.64R WCI  24
EAGLE          LGT SNOW  28  25  86 W6        29.54R WCI  22
RIFLE          FAIR      31  22  69 W13G26    29.56R WCI  21
DELTA          FAIR      37  16  41 W15G23    29.61R
NUCLA          CLOUDY    30  16  55 SW10      29.69R WCI  21
$$

COZ017>023-064>068-231600-
...SOUTHWEST COLORADO...

CITY           SKY/WX    TMP DP  RH WIND       PRES   REMARKS
DURANGO        FAIR      29  22  75 W15       29.66R WCI  18
CORTEZ         CLOUDY    32  21  64 W13G22    29.70R WCI  22
PAGOSA SPRINGS PTSUNNY   29  20  70 W22G30    29.64R HAZE    WCI  15
TELLURIDE      LGT SNOW  20  15  78 W10G22    29.61R WCI   9
WOLF CREEK PAS SNOW      10  10 100 SW41G60   29.50S VSB 1/4 WCI -15
$$

COZ009-010-012-014-032>034-037-058>063-231600-
...CENTRAL COLORADO...

CITY           SKY/WX    TMP DP  RH WIND       PRES   REMARKS
ASPEN          CLOUDY    27  21  78 CALM      29.50R
BUENA VISTA    SNOW      28  24  86 SW16G29   29.48R VSB 1/4 WCI  15
COPPER MTN     HVY SNOW  18  10  73 MISG      29.43R VSB<1/4
BERTHOUD PASS  SNOW       9  -2  61 S7        29.43R VSB 1/2 WCI  -3
COTTONWOOD PAS CLOUDY    25  19  80 W15G26    29.45R WCI  12
GUNNISON       PTSUNNY   27  17  66 W15       29.53R WCI  15
KREMMLING      CLOUDY    34  25  69 CALM      29.47S
LEADVILLE      LGT SNOW  19  14  81 W7        29.45R WCI  10
MONARCH PASS   TSTM      12  10  92 W37G60    29.53S VSB<1/4 WCI -11
SALIDA         CLOUDY    37  18  47 S20G31    29.51S
SUNLIGHT       NOT AVBL
WILKERSON PASS CLOUDY    21  10  63 SW9G21    29.46F WCI  11
$$

COZ069>075-231600-
...SAN LUIS VALLEY/SANGRE DE CRISTO MOUNTAINS...

CITY           SKY/WX    TMP DP  RH WIND       PRES   REMARKS
ALAMOSA        FAIR      34  23  64 SW32G40   29.51F WCI  20
LA VETA PASS   CLOUDY    23  19  86 NE39G55   29.49F WCI   3
SAGUACHE       LGT SNOW  30  28  93 S8        29.51R WCI  23
$$

COZ035-036-038>040-231600-
...NORTHERN COLORADO FRONT RANGE...

CITY           SKY/WX    TMP DP  RH WIND       PRES   REMARKS
DENVER INTL AP CLOUDY    28  23  81 SE10      29.55F WCI  19
DMNS CITY PARK   N/A     29  23  80 MISG      29.55F
AURORA         PTSUNNY   26  25  93 NE7       29.54F WCI  19
FRONT RANGE AP CLOUDY    28  27  93 E9        29.55  WCI  20
ERIE MUNI ARPT CLOUDY    32  26  79 NE5       29.56F WCI  27
BOULDER MUN AP LGT SNOW  30  30 100 NE5       29.55F VSB 1   WCI  25
CENTENNIAL     CLOUDY    27  24  89 CALM      29.53F
BROOMFIELD     NOT AVBL
FORT COLLINS   MIX PCPN  31  29  92 E17       29.57F FOG     WCI  19
LONGMONT       LGT SNOW  33  29  88 E6        29.58F WCI  27
$$

COZ041-046-047-076>085-087-088-231600-
...PIKES PEAK/PALMER DIVIDE AND SOUTHERN FOOTHILLS...

CITY           SKY/WX    TMP DP  RH WIND       PRES   REMARKS
COLO. SPRINGS  FAIR      32  21  64 N14       29.49F WCI  22
A. F. ACADEMY  PTSUNNY   30  22  73 N16       29.49S WCI  18
SCHRIEVER AFB  FAIR      29  21  71 N18       29.49F WCI  17
ELLICOTT       FAIR     N/A N/A N/A NE14      29.49F
FALCON         FAIR      29  20  71 N14       29.48F WCI  18
FORT CARSON    FAIR      33  22  65 N17G23    29.49S WCI  22
LIMON          FOG       26  26 100 E7        29.54F VSB 3/4 WCI  18
MONUMENT HILL  CLOUDY    23  21  93 NW7       29.52F WCI  15
TRINIDAD       FAIR      50  16  25 SW14      29.49F
$$

COZ042>045-048>051-090-091-231600-
...NORTHEAST COLORADO...

CITY           SKY/WX    TMP DP  RH WIND       PRES   REMARKS
GREELEY ARPT   MIX PCPN  31  30  96 E16       29.60S FOG     WCI  20
AKRON          CLOUDY    29  27  92 E15G25    29.58F FOG     WCI  18
BURLINGTON     CLOUDY    36  33  89 E23G31    29.53F FOG
WRAY           NOT AVBL
STERLING       CLOUDY    32  30  93 NE12      29.63S FOG     WCI  23
HOLYOKE        SNOW      34  32  93 E20G26    29.65S VSB 1/2 WCI  22
FORT MORGAN    LGT RAIN  30  29  96 E20G25    29.60F WCI  18
$$

COZ086-089-092>099-231600-
...SOUTHEAST COLORADO...

CITY           SKY/WX    TMP DP  RH WIND       PRES   REMARKS
PUEBLO         FAIR      35  22  58 N13       29.51F WCI  26
LA JUNTA       FAIR      35  21  56 N5        29.50F WCI  31
LAMAR          FAIR      35  23  61 CALM      29.50F
SPRINGFIELD      N/A     51  31  46 SW10      29.50F
$$




USA.gov is the U.S. government's official web portal to all federal, state and local government web resources and services.